Regional Weather Roundup
Issued by NWS Goodland, KS

Home | Current Version | Previous Version | Text Only | Print | Product List | Glossary On
Versions: 1 2 3 4 5 6 7 8 9 10 11 12 13 14 15 16 17 18 19 20 21 22 23 24 25 26 27 28 29 30 31 32 33 34 35 36 37 38 39 40 41 42 43 44 45 46 47 48 49 50
000
ASUS43 KGLD 280059
RWRGLD

GOODLAND FORECAST AREA HOURLY WEATHER ROUNDUP
NATIONAL WEATHER SERVICE GOODLAND KS
700 PM MDT WED MAY 27 2015

...OFFICIAL OBSERVATIONS...

CITY           SKY/WX    TMP DP  RH WIND       PRES   REMARKS
GOODLAND KS    PTSUNNY   66  58  75 SE25G36   30.00R
HILL CITY KS   CLOUDY    69  62  78 SE14      29.97F
IMPERIAL NEB   CLOUDY    62  58  86 S12       30.03R
MCCOOK NEB     LGT RAIN  65  60  84 N5        30.05R
AKRON CO       SUNNY     72  44  36 S8        29.99R
BURLINGTON CO  MOSUNNY   66  55  67 SE22G33   30.02R
LIMON CO       PTSUNNY   64  52  64 SE7       30.03S
$$

...UNOFFICIAL OBSERVATIONS...

CITY           SKY/WX    TMP DP  RH WIND       PRES   REMARKS
COLBY KS       PTCLDY    70  59  68 SE22G35   29.98R
GOVE KS          N/A     67  32  27 MISG        N/A
NORTON KS      CLEAR     70  55  60 E10       30.00S
SHARON SPRINGS   N/A     64  56  75 MISG        N/A
KIT CARSON CO    N/A     73  48  41 MISG        N/A
$$


USA.gov is the U.S. government's official web portal to all federal, state and local government web resources and services.